Time,TemperatureF,DewpointF,PressureIn,WindDirection,WindDirectionDegrees,WindSpeedMPH,WindSpeedGustMPH,Humidity,HourlyPrecipIn,Conditions,Clouds,dailyrainin,SoftwareType,DateUTC
2013-03-31 00:08:00,47.1,14.9,29.94,North,-999,0.0,0.0,27,0.00,,,-99.99,FreeWX 2.04,2013-03-31 04:08:00,
2013-03-31 00:18:00,47.1,14.9,29.94,North,-999,0.0,0.0,27,0.00,,,-99.99,FreeWX 2.04,2013-03-31 04:18:00,
2013-03-31 00:28:00,47.1,14.9,29.94,North,-999,0.0,0.0,27,0.00,,,-99.99,FreeWX 2.04,2013-03-31 04:28:00,
2013-03-31 00:38:00,46.9,14.7,29.94,North,-999,0.0,0.0,27,0.00,,,-99.99,FreeWX 2.04,2013-03-31 04:38:00,
2013-03-31 00:48:00,46.9,14.7,29.94,North,-999,0.0,0.0,27,0.00,,,-99.99,FreeWX 2.04,2013-03-31 04:48:00,
2013-03-31 00:58:00,46.8,14.5,29.94,North,-999,0.0,0.0,27,0.00,,,-99.99,FreeWX 2.04,2013-03-31 04:58:00,
2013-03-31 01:08:00,46.8,16.2,29.91,North,-999,0.0,0.0,29,0.00,,,-99.99,FreeWX 2.04,2013-03-31 05:08:00,
2013-03-31 01:18:00,46.6,16.0,29.91,North,-999,0.0,0.0,29,0.00,,,-99.99,FreeWX 2.04,2013-03-31 05:18:00,
2013-03-31 01:28:00,46.8,16.2,29.91,North,-999,0.0,0.0,29,0.00,,,-99.99,FreeWX 2.04,2013-03-31 05:28:00,
2013-03-31 01:38:00,46.6,16.0,29.91,North,-999,0.0,0.0,29,0.00,,,-99.99,FreeWX 2.04,2013-03-31 05:38:00,
2013-03-31 01:48:00,46.4,16.0,29.91,North,-999,0.0,0.0,29,0.00,,,-99.99,FreeWX 2.04,2013-03-31 05:48:00,
2013-03-31 01:58:00,46.6,18.3,29.91,North,-999,0.0,0.0,32,0.00,,,-99.99,FreeWX 2.04,2013-03-31 05:58:00,
2013-03-31 02:08:00,46.4,17.4,29.91,North,-999,0.0,0.0,31,0.00,,,-99.99,FreeWX 2.04,2013-03-31 06:08:00,
2013-03-31 02:18:00,46.4,17.4,29.88,North,-999,0.0,0.0,31,0.00,,,-99.99,FreeWX 2.04,2013-03-31 06:18:00,
2013-03-31 02:28:00,46.4,17.4,29.88,North,-999,0.0,0.0,31,0.00,,,-99.99,FreeWX 2.04,2013-03-31 06:28:00,
2013-03-31 02:38:00,46.2,18.0,29.88,North,-999,0.0,0.0,32,0.00,,,-99.99,FreeWX 2.04,2013-03-31 06:38:00,
2013-03-31 02:48:00,46.4,18.1,29.88,North,-999,0.0,0.0,32,0.00,,,-99.99,FreeWX 2.04,2013-03-31 06:48:00,
2013-03-31 02:58:00,46.4,18.9,29.88,North,-999,0.0,0.0,33,0.00,,,-99.99,FreeWX 2.04,2013-03-31 06:58:00,
2013-03-31 03:08:00,46.4,17.4,29.88,NW,308,2.0,4.9,31,0.00,,,-99.99,FreeWX 2.04,2013-03-31 07:08:00,
2013-03-31 03:18:00,46.6,21.0,29.88,NNW,339,4.0,7.4,36,0.00,,,-99.99,FreeWX 2.04,2013-03-31 07:18:00,
2013-03-31 03:28:00,48.0,22.3,29.88,NNW,334,3.0,9.2,36,0.00,,,-99.99,FreeWX 2.04,2013-03-31 07:28:00,
2013-03-31 03:38:00,48.6,22.1,29.85,North,355,3.0,5.4,35,0.00,,,-99.99,FreeWX 2.04,2013-03-31 07:38:00,
2013-03-31 03:48:00,48.4,21.9,29.85,North,351,1.0,4.0,35,0.00,,,-99.99,FreeWX 2.04,2013-03-31 07:48:00,
2013-03-31 03:58:00,48.4,23.4,29.85,North,-999,0.0,4.0,37,0.00,,,-99.99,FreeWX 2.04,2013-03-31 07:58:00,
2013-03-31 04:08:00,48.2,23.7,29.85,North,-999,0.0,4.0,38,0.00,,,-99.99,FreeWX 2.04,2013-03-31 08:08:00,
2013-03-31 04:18:00,48.0,23.7,29.85,North,-999,0.0,3.6,38,0.00,,,-99.99,FreeWX 2.04,2013-03-31 08:18:00,
2013-03-31 04:28:00,47.7,23.9,29.85,North,-999,0.0,3.1,39,0.00,,,-99.99,FreeWX 2.04,2013-03-31 08:28:00,
2013-03-31 04:38:00,47.7,24.6,29.85,North,-999,0.0,0.0,40,0.00,,,-99.99,FreeWX 2.04,2013-03-31 08:38:00,
2013-03-31 04:48:00,47.5,25.0,29.82,North,-999,0.0,0.0,41,0.00,,,-99.99,FreeWX 2.04,2013-03-31 08:48:00,
2013-03-31 04:58:00,47.3,25.9,29.82,North,-999,0.0,0.0,43,0.00,,,-99.99,FreeWX 2.04,2013-03-31 08:58:00,
2013-03-31 05:08:00,46.8,25.5,29.82,North,-999,0.0,0.0,43,0.00,,,-99.99,FreeWX 2.04,2013-03-31 09:08:00,
2013-03-31 05:18:00,46.6,25.9,29.82,North,-999,0.0,0.0,44,0.04,,,-99.99,FreeWX 2.04,2013-03-31 09:18:00,
2013-03-31 05:28:00,46.8,29.1,29.82,North,-999,0.0,0.0,50,0.04,,,-99.99,FreeWX 2.04,2013-03-31 09:28:00,
2013-03-31 05:38:00,46.8,30.6,29.82,North,-999,0.0,0.0,53,0.04,,,-99.99,FreeWX 2.04,2013-03-31 09:38:00,
2013-03-31 05:48:00,46.8,30.0,29.82,North,-999,0.0,0.0,52,0.04,,,-99.99,FreeWX 2.04,2013-03-31 09:48:00,
2013-03-31 05:58:00,46.4,29.7,29.82,North,-999,0.0,0.0,52,0.04,,,-99.99,FreeWX 2.04,2013-03-31 09:58:00,
2013-03-31 06:08:00,46.4,30.2,29.82,North,-999,0.0,0.0,53,0.04,,,-99.99,FreeWX 2.04,2013-03-31 10:08:00,
2013-03-31 06:18:00,46.4,30.2,29.79,North,-999,0.0,0.0,53,0.00,,,-99.99,FreeWX 2.04,2013-03-31 10:18:00,
2013-03-31 06:28:00,46.6,31.3,29.79,North,-999,0.0,0.0,55,0.00,,,-99.99,FreeWX 2.04,2013-03-31 10:28:00,
2013-03-31 06:38:00,46.6,31.3,29.79,North,-999,0.0,0.0,55,0.00,,,-99.99,FreeWX 2.04,2013-03-31 10:38:00,
2013-03-31 06:48:00,46.6,32.2,29.79,North,-999,0.0,0.0,57,0.00,,,-99.99,FreeWX 2.04,2013-03-31 10:48:00,
2013-03-31 06:58:00,46.8,33.3,29.79,North,-999,0.0,0.0,59,0.00,,,-99.99,FreeWX 2.04,2013-03-31 10:58:00,
2013-03-31 07:08:00,46.6,33.1,29.79,North,-999,0.0,0.0,59,0.00,,,-99.99,FreeWX 2.04,2013-03-31 11:08:00,
2013-03-31 07:18:00,46.4,32.4,29.79,North,-999,0.0,0.0,58,0.00,,,-99.99,FreeWX 2.04,2013-03-31 11:18:00,
2013-03-31 07:28:00,46.6,33.4,29.79,North,-999,0.0,0.0,60,0.00,,,-99.99,FreeWX 2.04,2013-03-31 11:28:00,
2013-03-31 07:38:00,46.8,34.0,29.79,North,-999,0.0,0.0,61,0.00,,,-99.99,FreeWX 2.04,2013-03-31 11:38:00,
2013-03-31 07:48:00,46.9,34.5,29.79,North,-999,0.0,0.0,62,0.00,,,-99.99,FreeWX 2.04,2013-03-31 11:48:00,
2013-03-31 07:59:00,47.3,35.4,29.79,North,-999,0.0,0.0,63,0.04,,,-99.99,FreeWX 2.04,2013-03-31 11:59:00,
2013-03-31 08:09:00,47.1,34.7,29.79,North,-999,0.0,0.0,62,0.04,,,-99.99,FreeWX 2.04,2013-03-31 12:09:00,
2013-03-31 08:19:00,47.1,34.7,29.79,North,-999,0.0,0.0,62,0.04,,,-99.99,FreeWX 2.04,2013-03-31 12:19:00,
2013-03-31 08:29:00,47.3,34.9,29.79,North,-999,0.0,0.0,62,0.04,,,-99.99,FreeWX 2.04,2013-03-31 12:29:00,
2013-03-31 08:39:00,47.5,35.1,29.79,North,-999,0.0,0.0,62,0.04,,,-99.99,FreeWX 2.04,2013-03-31 12:39:00,
2013-03-31 08:49:00,47.7,35.2,29.79,North,-999,0.0,0.0,62,0.04,,,-99.99,FreeWX 2.04,2013-03-31 12:49:00,
2013-03-31 08:59:00,47.8,35.4,29.79,North,-999,0.0,0.0,62,0.00,,,-99.99,FreeWX 2.04,2013-03-31 12:59:00,
2013-03-31 09:09:00,48.0,36.0,29.79,North,-999,0.0,0.0,63,0.00,,,-99.99,FreeWX 2.04,2013-03-31 13:09:00,
2013-03-31 09:19:00,48.0,36.0,29.79,North,-999,0.0,0.0,63,0.00,,,-99.99,FreeWX 2.04,2013-03-31 13:19:00,
2013-03-31 09:29:00,48.2,36.7,29.79,North,-999,0.0,0.0,64,0.00,,,-99.99,FreeWX 2.04,2013-03-31 13:29:00,
2013-03-31 09:39:00,48.4,36.9,29.79,North,-999,0.0,0.0,64,0.04,,,-99.99,FreeWX 2.04,2013-03-31 13:39:00,
2013-03-31 09:49:00,48.7,37.0,29.79,North,-999,0.0,0.0,64,0.04,,,-99.99,FreeWX 2.04,2013-03-31 13:49:00,
2013-03-31 09:59:00,48.9,37.8,29.79,North,-999,0.0,0.0,65,0.04,,,-99.99,FreeWX 2.04,2013-03-31 13:59:00,
2013-03-31 10:09:00,49.3,37.9,29.79,North,-999,0.0,0.0,65,0.04,,,-99.99,FreeWX 2.04,2013-03-31 14:09:00,
2013-03-31 10:19:00,50.0,39.0,29.79,North,-999,0.0,0.0,66,0.04,,,-99.99,FreeWX 2.04,2013-03-31 14:19:00,
2013-03-31 10:29:00,50.4,39.4,29.79,North,-999,0.0,5.4,66,0.04,,,-99.99,FreeWX 2.04,2013-03-31 14:29:00,
2013-03-31 10:39:00,50.7,39.7,29.79,North,-999,0.0,4.5,66,0.00,,,-99.99,FreeWX 2.04,2013-03-31 14:39:00,
2013-03-31 10:49:00,51.1,40.5,29.79,NE,48,2.0,5.4,67,0.00,,,-99.99,FreeWX 2.04,2013-03-31 14:49:00,
2013-03-31 10:59:00,51.3,41.0,29.79,NE,39,2.0,4.9,68,0.00,,,-99.99,FreeWX 2.04,2013-03-31 14:59:00,
2013-03-31 11:09:00,51.4,41.2,29.79,ENE,74,3.0,7.4,68,0.00,,,-99.99,FreeWX 2.04,2013-03-31 15:09:00,
2013-03-31 11:19:00,51.6,41.4,29.79,NNE,30,3.0,6.9,68,0.00,,,-99.99,FreeWX 2.04,2013-03-31 15:19:00,
2013-03-31 11:29:00,52.5,42.6,29.79,NNE,27,3.0,7.4,69,0.00,,,-99.99,FreeWX 2.04,2013-03-31 15:29:00,
2013-03-31 11:39:00,52.9,42.6,29.79,NNE,12,3.0,6.9,68,0.00,,,-99.99,FreeWX 2.04,2013-03-31 15:39:00,
2013-03-31 11:49:00,53.2,43.0,29.79,NNE,28,2.0,7.8,68,0.00,,,-99.99,FreeWX 2.04,2013-03-31 15:49:00,
2013-03-31 11:59:00,52.9,41.9,29.79,NE,48,2.0,6.3,66,0.00,,,-99.99,FreeWX 2.04,2013-03-31 15:59:00,
2013-03-31 12:09:00,52.7,41.7,29.79,NNE,28,3.0,7.8,66,0.00,,,-99.99,FreeWX 2.04,2013-03-31 16:09:00,
2013-03-31 12:19:00,52.2,40.8,29.82,ENE,57,4.0,9.6,65,0.00,,,-99.99,FreeWX 2.04,2013-03-31 16:19:00,
2013-03-31 12:29:00,52.2,40.8,29.82,NE,50,3.0,6.3,65,0.00,,,-99.99,FreeWX 2.04,2013-03-31 16:29:00,
2013-03-31 12:39:00,52.0,40.1,29.82,ENE,73,1.0,5.8,64,0.00,,,-99.99,FreeWX 2.04,2013-03-31 16:39:00,
2013-03-31 12:49:00,52.0,40.6,29.82,East,84,2.0,6.7,65,0.00,,,-99.99,FreeWX 2.04,2013-03-31 16:49:00,
2013-03-31 12:59:00,51.8,40.8,29.82,ENE,65,3.0,6.9,66,0.00,,,-99.99,FreeWX 2.04,2013-03-31 16:59:00,
2013-03-31 13:09:00,51.8,41.2,29.82,East,99,4.0,9.2,67,0.00,,,-99.99,FreeWX 2.04,2013-03-31 17:09:00,
2013-03-31 13:20:00,51.8,41.5,29.82,East,88,3.0,7.8,68,0.00,,,-99.99,FreeWX 2.04,2013-03-31 17:20:00,
2013-03-31 13:30:00,52.2,42.3,29.82,ENE,59,2.0,5.8,69,0.00,,,-99.99,FreeWX 2.04,2013-03-31 17:30:00,
2013-03-31 13:40:00,52.3,42.1,29.82,NNE,33,3.0,7.4,68,0.00,,,-99.99,FreeWX 2.04,2013-03-31 17:40:00,
2013-03-31 13:50:00,52.3,42.1,29.82,ENE,64,3.0,7.4,68,0.00,,,-99.99,FreeWX 2.04,2013-03-31 17:50:00,
2013-03-31 14:00:00,52.2,41.9,29.82,ENE,71,2.0,6.7,68,0.00,,,-99.99,FreeWX 2.04,2013-03-31 18:00:00,
2013-03-31 14:20:00,52.2,41.5,29.82,NNE,24,2.0,6.3,67,0.00,,,-99.99,FreeWX 2.04,2013-03-31 18:20:00,
2013-03-31 14:30:00,52.2,41.5,29.82,NE,39,2.0,5.8,67,0.00,,,-99.99,FreeWX 2.04,2013-03-31 18:30:00,
2013-03-31 14:40:00,52.0,41.0,29.82,ENE,66,4.0,7.8,66,0.00,,,-99.99,FreeWX 2.04,2013-03-31 18:40:00,
2013-03-31 14:50:00,51.6,40.3,29.82,ENE,59,3.0,12.1,65,0.00,,,-99.99,FreeWX 2.04,2013-03-31 18:50:00,
2013-03-31 15:00:00,51.1,38.5,29.82,ENE,73,6.0,11.0,62,0.00,,,-99.99,FreeWX 2.04,2013-03-31 19:00:00,
2013-03-31 15:10:00,50.9,37.9,29.82,NNE,28,4.0,10.1,61,0.00,,,-99.99,FreeWX 2.04,2013-03-31 19:10:00,
2013-03-31 15:20:00,50.9,38.3,29.85,ESE,103,2.0,8.3,62,0.00,,,-99.99,FreeWX 2.04,2013-03-31 19:20:00,
2013-03-31 15:30:00,50.9,38.3,29.85,NE,47,3.0,9.2,62,0.00,,,-99.99,FreeWX 2.04,2013-03-31 19:30:00,
2013-03-31 15:40:00,51.1,38.1,29.82,NE,52,2.0,8.7,61,0.00,,,-99.99,FreeWX 2.04,2013-03-31 19:40:00,
2013-03-31 15:50:00,51.4,38.5,29.82,NE,49,3.0,7.4,61,0.00,,,-99.99,FreeWX 2.04,2013-03-31 19:50:00,
2013-03-31 16:00:00,52.5,39.4,29.82,North,11,3.0,7.4,61,0.00,,,-99.99,FreeWX 2.04,2013-03-31 20:00:00,
2013-03-31 16:10:00,52.9,36.1,29.82,NNE,18,4.0,9.6,53,0.00,,,-99.99,FreeWX 2.04,2013-03-31 20:10:00,
2013-03-31 16:20:00,53.1,36.0,29.82,NNE,24,3.0,10.5,52,0.00,,,-99.99,FreeWX 2.04,2013-03-31 20:20:00,
2013-03-31 16:30:00,53.8,36.1,29.82,NNE,28,3.0,6.9,51,0.00,,,-99.99,FreeWX 2.04,2013-03-31 20:30:00,
2013-03-31 16:40:00,54.5,35.2,29.79,NE,36,4.0,6.9,48,0.00,,,-99.99,FreeWX 2.04,2013-03-31 20:40:00,
2013-03-31 16:50:00,55.2,33.6,29.79,NNE,15,4.0,11.2,44,0.00,,,-99.99,FreeWX 2.04,2013-03-31 20:50:00,
2013-03-31 17:00:00,55.0,34.2,29.79,ENE,62,3.0,8.7,45,0.00,,,-99.99,FreeWX 2.04,2013-03-31 21:00:00,
2013-03-31 17:10:00,55.0,34.2,29.79,North,6,2.0,6.9,45,0.00,,,-99.99,FreeWX 2.04,2013-03-31 21:10:00,
2013-03-31 17:21:00,55.2,33.6,29.79,North,11,4.0,6.9,44,0.00,,,-99.99,FreeWX 2.04,2013-03-31 21:21:00,
2013-03-31 17:31:00,55.9,34.9,29.79,North,7,3.0,6.3,45,0.00,,,-99.99,FreeWX 2.04,2013-03-31 21:31:00,
2013-03-31 17:41:00,56.1,33.3,29.79,North,8,3.0,5.8,42,0.00,,,-99.99,FreeWX 2.04,2013-03-31 21:41:00,
2013-03-31 17:51:00,56.3,31.1,29.79,NNE,17,4.0,7.8,38,0.00,,,-99.99,FreeWX 2.04,2013-03-31 21:51:00,
2013-03-31 18:01:00,55.9,30.7,29.79,NNE,18,4.0,7.8,38,0.00,,,-99.99,FreeWX 2.04,2013-03-31 22:01:00,
2013-03-31 18:21:00,55.6,29.7,29.79,ENE,64,4.0,9.2,37,0.00,,,-99.99,FreeWX 2.04,2013-03-31 22:21:00,
2013-03-31 18:31:00,55.9,30.0,29.79,NNE,15,4.0,6.7,37,0.00,,,-99.99,FreeWX 2.04,2013-03-31 22:31:00,
2013-03-31 19:02:00,54.5,29.5,29.82,NNE,12,1.0,4.0,38,0.00,,,-99.99,FreeWX 2.04,2013-03-31 23:02:00,
2013-03-31 19:12:00,54.1,29.7,29.82,North,356,1.0,5.8,39,0.00,,,-99.99,FreeWX 2.04,2013-03-31 23:12:00,
2013-03-31 19:22:00,53.6,29.8,29.79,NNE,24,2.0,4.9,40,0.00,,,-99.99,FreeWX 2.04,2013-03-31 23:22:00,
2013-03-31 19:32:00,53.1,29.3,29.82,North,-999,0.0,4.5,40,0.00,,,-99.99,FreeWX 2.04,2013-03-31 23:32:00,
2013-03-31 19:42:00,52.7,29.7,29.82,North,-999,0.0,3.1,41,0.00,,,-99.99,FreeWX 2.04,2013-03-31 23:42:00,
2013-03-31 19:52:00,52.0,28.9,29.82,North,-999,0.0,0.0,41,0.00,,,-99.99,FreeWX 2.04,2013-03-31 23:52:00,
2013-03-31 20:02:00,51.6,29.3,29.82,North,-999,0.0,0.0,42,0.00,,,-99.99,FreeWX 2.04,2013-04-01 00:02:00,
2013-03-31 20:12:00,51.1,30.0,29.82,North,-999,0.0,0.0,44,0.00,,,-99.99,FreeWX 2.04,2013-04-01 00:12:00,
2013-03-31 20:22:00,50.4,30.4,29.82,North,-999,0.0,0.0,46,0.00,,,-99.99,FreeWX 2.04,2013-04-01 00:22:00,
2013-03-31 20:32:00,50.2,30.7,29.82,North,-999,0.0,0.0,47,0.00,,,-99.99,FreeWX 2.04,2013-04-01 00:32:00,
2013-03-31 20:42:00,49.6,30.7,29.82,North,-999,0.0,0.0,48,0.00,,,-99.99,FreeWX 2.04,2013-04-01 00:42:00,
2013-03-31 20:52:00,49.1,30.7,29.82,North,-999,0.0,0.0,49,0.00,,,-99.99,FreeWX 2.04,2013-04-01 00:52:00,
2013-03-31 21:02:00,48.6,31.3,29.82,North,-999,0.0,0.0,51,0.00,,,-99.99,FreeWX 2.04,2013-04-01 01:02:00,
2013-03-31 21:22:00,47.5,30.7,29.82,North,-999,0.0,0.0,52,0.00,,,-99.99,FreeWX 2.04,2013-04-01 01:22:00,
2013-03-31 21:42:00,46.6,30.4,29.82,North,-999,0.0,0.0,53,0.00,,,-99.99,FreeWX 2.04,2013-04-01 01:42:00,
2013-03-31 21:53:00,46.2,29.7,29.82,North,-999,0.0,0.0,52,0.00,,,-99.99,FreeWX 2.04,2013-04-01 01:53:00,
2013-03-31 22:03:00,45.5,28.9,29.82,North,-999,0.0,0.0,52,0.00,,,-99.99,FreeWX 2.04,2013-04-01 02:03:00,
2013-03-31 22:13:00,45.0,29.3,29.82,North,-999,0.0,0.0,54,0.00,,,-99.99,FreeWX 2.04,2013-04-01 02:13:00,
2013-03-31 22:23:00,44.6,28.9,29.82,North,-999,0.0,0.0,54,0.00,,,-99.99,FreeWX 2.04,2013-04-01 02:23:00,
2013-03-31 22:33:00,44.2,28.6,29.82,North,-999,0.0,0.0,54,0.00,,,-99.99,FreeWX 2.04,2013-04-01 02:33:00,
2013-03-31 22:43:00,44.1,28.9,29.82,North,-999,0.0,0.0,55,0.00,,,-99.99,FreeWX 2.04,2013-04-01 02:43:00,
2013-03-31 22:53:00,43.5,28.4,29.82,North,-999,0.0,0.0,55,0.00,,,-99.99,FreeWX 2.04,2013-04-01 02:53:00,
2013-03-31 23:03:00,43.3,28.8,29.82,North,-999,0.0,0.0,56,0.00,,,-99.99,FreeWX 2.04,2013-04-01 03:03:00,
2013-03-31 23:13:00,43.0,28.8,29.82,North,-999,0.0,3.1,57,0.00,,,-99.99,FreeWX 2.04,2013-04-01 03:13:00,
2013-03-31 23:23:00,42.4,28.2,29.82,North,-999,0.0,0.0,57,0.00,,,-99.99,FreeWX 2.04,2013-04-01 03:23:00,
2013-03-31 23:33:00,42.1,28.0,29.82,North,-999,0.0,0.0,57,0.00,,,-99.99,FreeWX 2.04,2013-04-01 03:33:00,
2013-03-31 23:43:00,41.7,28.0,29.82,North,-999,0.0,0.0,58,0.00,,,-99.99,FreeWX 2.04,2013-04-01 03:43:00,
2013-03-31 23:53:00,41.5,28.2,29.82,North,-999,0.0,0.0,59,0.00,,,-99.99,FreeWX 2.04,2013-04-01 03:53:00,